| time (UTC) | temp F | wind direction | speed knots | gust knots | rain 1hr in | rain 24hr in | rain mn in | humidity % | barometer mb |
| 20260505124506 | 76 | 192 | 5.2 | 9.6 | 0.00 | 0.00 | 0.00 | 22 | 1011.8 |
| 20260505121507 | 74 | 216 | 5.2 | 9.6 | 0.00 | 0.00 | 0.00 | 22 | 1012.2 |
| 20260505120006 | 74 | 250 | 4.3 | 10.4 | 0.00 | 0.00 | 0.00 | 22 | 1012.0 |
| 20260505114506 | 73 | 235 | 5.2 | 9.6 | 0.00 | 0.00 | 0.00 | 22 | 1012.0 |
| 20260505113006 | 73 | 243 | 5.2 | 9.6 | 0.00 | 0.00 | 0.00 | 22 | 1012.3 |
| 20260505101506 | 69 | 147 | 5.2 | 9.6 | 0.00 | 0.00 | 0.00 | 24 | 1012.7 |
| 20260505100006 | 69 | 169 | 4.3 | 7.8 | 0.00 | 0.00 | 0.00 | 24 | 1012.5 |
| 20260505094505 | 67 | 211 | 4.3 | 8.7 | 0.00 | 0.00 | 0.00 | 24 | 1012.5 |
| 20260505093006 | 67 | 255 | 3.5 | 9.6 | 0.00 | 0.00 | 0.00 | 25 | 1012.9 |
| 20260505091506 | 66 | 163 | 5.2 | 9.6 | 0.00 | 0.00 | 0.00 | 24 | 1012.9 |
| 20260505083005 | 62 | 165 | 3.5 | 7.8 | 0.00 | 0.00 | 0.00 | 26 | 1012.7 |
| 20260505080006 | 59 | 230 | 4.3 | 8.7 | 0.00 | 0.00 | 0.00 | 31 | 1012.7 |
| 20260505074505 | 58 | 225 | 4.3 | 8.7 | 0.00 | 0.00 | 0.00 | 31 | 1012.8 |
| 20260505073006 | 56 | 185 | 5.2 | 9.6 | 0.00 | 0.00 | 0.00 | 31 | 1012.6 |
| 20260505071505 | 55 | 231 | 6.1 | 9.6 | 0.00 | 0.00 | 0.00 | 31 | 1013.0 |
| 20260505070005 | 55 | 233 | 5.2 | 9.6 | 0.00 | 0.00 | 0.00 | 31 | 1012.8 |
| 20260505064506 | 55 | 224 | 5.2 | 8.7 | 0.00 | 0.00 | 0.00 | 31 | 1013.0 |
| 20260505063006 | 56 | 213 | 4.3 | 7.0 | 0.00 | 0.00 | 0.00 | 31 | 1013.1 |
| 20260505061505 | 55 | 259 | 5.2 | 7.0 | 0.00 | 0.00 | 0.00 | 31 | 1013.0 |
| 20260505060006 | 55 | 234 | 5.2 | 11.3 | 0.00 | 0.00 | 0.00 | 31 | 1013.2 |
| 20260505054505 | 54 | 214 | 6.1 | 9.6 | 0.00 | 0.00 | 0.00 | 31 | 1013.1 |
| 20260505051505 | 52 | 223 | 3.5 | 7.0 | 0.00 | 0.00 | 0.00 | 34 | 1012.9 |
| 20260505041505 | 50 | 162 | 1.7 | 3.5 | 0.00 | 0.00 | 0.00 | 34 | 1013.4 |
| 20260505040005 | 50 | 135 | 0.9 | 4.3 | 0.00 | 0.00 | 0.00 | 34 | 1013.4 |
| 20260505034505 | 50 | 151 | 1.7 | 3.5 | 0.00 | 0.00 | 0.00 | 34 | 1013.4 |
| 20260505033004 | 50 | 140 | 0.9 | 3.5 | 0.00 | 0.00 | 0.00 | 34 | 1013.6 |
| 20260505031505 | 51 | 90 | 0.9 | 1.7 | 0.00 | 0.00 | 0.00 | 34 | 1013.8 |
| 20260505030004 | 51 | 161 | 1.7 | 3.5 | 0.00 | 0.00 | 0.00 | 34 | 1013.9 |
| 20260505024505 | 51 | 90 | 0.9 | 1.7 | 0.00 | 0.00 | 0.00 | 33 | 1014.0 |
| 20260505023004 | 52 | 4 | 0.9 | 1.7 | 0.00 | 0.00 | 0.00 | 33 | 1014.2 |
| 20260505021505 | 53 | 345 | 0.9 | 2.6 | 0.00 | 0.00 | 0.00 | 31 | 1014.6 |
| 20260505020004 | 53 | 341 | 2.6 | 6.1 | 0.00 | 0.00 | 0.00 | 31 | 1014.5 |
| 20260505014505 | 54 | 225 | 0.9 | 3.5 | 0.00 | 0.00 | 0.00 | 31 | 1014.5 |
| 20260505013004 | 54 | 225 | 3.5 | 4.3 | 0.00 | 0.00 | 0.00 | 31 | 1014.5 |
| 20260505011505 | 55 | 225 | 2.6 | 4.3 | 0.00 | 0.00 | 0.00 | 31 | 1014.3 |
| 20260505010005 | 55 | 217 | 2.6 | 5.2 | 0.00 | 0.00 | 0.00 | 29 | 1014.6 |
| 20260505004505 | 55 | 243 | 3.5 | 5.2 | 0.00 | 0.00 | 0.00 | 29 | 1014.7 |
| 20260505003006 | 56 | 187 | 3.5 | 7.8 | 0.00 | 0.00 | 0.00 | 29 | 1015.0 |
| 20260505001505 | 56 | 196 | 3.5 | 6.1 | 0.00 | 0.00 | 0.00 | 29 | 1015.0 |
| 20260505000004 | 56 | 245 | 3.5 | 8.7 | 0.00 | 0.00 | 0.00 | 29 | 1015.3 |
| 20260504234505 | 56 | 234 | 2.6 | 5.2 | 0.00 | 0.00 | 0.00 | 29 | 1015.6 |
| 20260504233004 | 56 | 225 | 3.5 | 6.1 | 0.00 | 0.00 | 0.00 | 29 | 1015.2 |
| 20260504231507 | 56 | 270 | 3.5 | 7.0 | 0.00 | 0.00 | 0.00 | 29 | 1015.5 |
| 20260504224507 | 56 | 206 | 3.5 | 7.0 | 0.00 | 0.00 | 0.00 | 29 | 1015.8 |
| 20260504223008 | 56 | 270 | 2.6 | 4.3 | 0.00 | 0.00 | 0.00 | 29 | 1016.0 |
| 20260504221507 | 56 | 270 | 2.6 | 4.3 | 0.00 | 0.00 | 0.00 | 31 | 1016.0 |
| 20260504220010 | 56 | 270 | 2.6 | 5.2 | 0.00 | 0.00 | 0.00 | 31 | 1016.1 |
| 20260504214507 | 56 | 270 | 2.6 | 6.1 | 0.00 | 0.00 | 0.00 | 31 | 1016.4 |
| 20260504213008 | 56 | 270 | 2.6 | 4.3 | 0.00 | 0.00 | 0.00 | 31 | 1016.6 |
| 20260504211508 | 56 | 270 | 2.6 | 7.0 | 0.00 | 0.00 | 0.00 | 31 | 1016.6 |
| 20260504210007 | 57 | 270 | 1.7 | 4.3 | 0.00 | 0.00 | 0.00 | 31 | 1016.6 |
| 20260504204508 | 58 | 270 | 2.6 | 7.0 | 0.00 | 0.00 | 0.00 | 31 | 1016.6 |
| 20260504203007 | 58 | 187 | 1.7 | 5.2 | 0.00 | 0.00 | 0.00 | 31 | 1016.7 |
| 20260504201507 | 59 | 181 | 3.5 | 7.8 | 0.00 | 0.00 | 0.00 | 29 | 1016.8 |
| 20260504200008 | 59 | 177 | 2.6 | 7.0 | 0.00 | 0.00 | 0.00 | 29 | 1016.9 |
| 20260504194508 | 59 | 225 | 3.5 | 7.0 | 0.00 | 0.00 | 0.00 | 31 | 1016.8 |
| 20260504193007 | 59 | 225 | 3.5 | 6.1 | 0.00 | 0.00 | 0.00 | 31 | 1016.9 |
| 20260504190007 | 59 | 225 | 1.7 | 3.5 | 0.00 | 0.00 | 0.00 | 31 | 1016.8 |
| 20260504184507 | 60 | 225 | 1.7 | 3.5 | 0.00 | 0.00 | 0.00 | 31 | 1016.8 |
| 20260504183007 | 61 | 225 | 1.7 | 4.3 | 0.00 | 0.00 | 0.00 | 31 | 1016.7 |
| 20260504180008 | 63 | 225 | 0.9 | 1.7 | 0.00 | 0.00 | 0.00 | 26 | 1016.7 |
| 20260504174507 | 65 | 225 | 1.7 | 4.3 | 0.00 | 0.00 | 0.00 | 25 | 1016.8 |
| 20260504173007 | 66 | 225 | 1.7 | 6.1 | 0.00 | 0.00 | 0.00 | 26 | 1016.7 |
| 20260504171507 | 67 | 225 | 1.7 | 3.5 | 0.00 | 0.00 | 0.00 | 26 | 1016.7 |